Pomona, MO

9:24 PM CST on February 25, 2017 (GMT -0600)
West Plains Municipal

Weather History for KUNO - May, 2014

Change the Weather History Date:

Monday, May 19, 2014

  Actual Average Record
Temperature  
Mean Temperature 63 °F 66 °F  
Max Temperature 77 °F 77 °F 91 °F (1987)
Min Temperature 48 °F 55 °F 38 °F (2002)
Degree Days  
Heating Degree Days 2 2  
Month to date heating degree days 105 64  
Since 1 July heating degree days 4857 4326  
Cooling Degree Days 0 3  
Month to date cooling degree days 57 41  
Year to date cooling degree days 66 69  
Growing Degree Days 12 (Base 50)    
Moisture  
Dew Point 54 °F    
Average Humidity 72    
Maximum Humidity 93    
Minimum Humidity 50    
Precipitation  
Precipitation 0.00 in 0.15 in 0.89 in (1960)
Month to date precipitation 2.68 3.37  
Year to date precipitation 11.85 17.70  
Sea Level Pressure  
Sea Level Pressure 30.07 in    
Wind  
Wind Speed 11 mph (SSE)    
Max Wind Speed 24 mph    
Max Gust Speed 31 mph    
Visibility 9 miles    
Events Fog    
T = Trace of Precipitation, MM = Missing Value Source: NWS Daily Summary

Daily Weather History Graph

Daily Weather History Graph

Search for Another Location

Airport or City:

Trip Planner

Search our weather history database for the weather conditions in past years. The results will help you decide how hot, cold, wet, or windy it might be!

Date:

Astronomy

May. 19, 2014 Rise Set
Actual Time 5:56 AM CDT 8:11 PM CDT
Civil Twilight 5:27 AM CDT 8:41 PM CDT
Nautical Twilight 4:51 AM CDT 9:17 PM CDT
Astronomical Twilight 4:12 AM CDT 9:56 PM CDT
Moon 12:01 AM CDT (5/19) 10:52 AM CDT (5/19)
Length of Visible Light 15h 13m
Length of Day
14h 15m
Waning Gibbous, 71% of the Moon is Illuminated
May 19
Waning Gibbous
May 21
Last Quarter
May 28
New
Jun 5
First Quarter
Jun 12
Full

Hourly Weather History & Observations

Time (CDT) Temp. Dew Point Humidity Pressure Visibility Wind Dir Wind Speed Gust Speed Precip Events Conditions
12:53 AM 53.1 °F 45.0 °F 74% 30.13 in 10.0 mi East 5.8 mph - N/A   Clear
1:53 AM 53.1 °F 46.0 °F 77% 30.12 in 10.0 mi Calm Calm - N/A   Clear
2:53 AM 48.9 °F 45.0 °F 86% 30.13 in 10.0 mi Calm Calm - N/A   Clear
3:53 AM 48.0 °F 45.0 °F 89% 30.12 in 10.0 mi Calm Calm - N/A   Clear
4:53 AM 48.9 °F 46.0 °F 90% 30.12 in 10.0 mi Calm Calm - N/A   Scattered Clouds
5:03 AM 50.0 °F 46.9 °F 89% 30.12 in 10.0 mi Calm Calm - N/A   Mostly Cloudy
5:31 AM 51.1 °F 48.0 °F 89% 30.13 in 9.0 mi Calm Calm - N/A   Overcast
5:53 AM 54.0 °F 50.0 °F 86% 30.12 in 10.0 mi SE 3.5 mph - N/A   Overcast
6:37 AM 52.0 °F 50.0 °F 93% 30.14 in 1.5 mi SE 5.8 mph - N/A   Overcast
6:40 AM 52.0 °F 50.0 °F 93% 30.14 in 0.8 mi SE 5.8 mph - N/A   Overcast
6:53 AM 53.1 °F 51.1 °F 93% 30.13 in 0.2 mi SE 4.6 mph - N/A Fog Fog
8:53 AM 57.9 °F 55.0 °F 90% 30.14 in 10.0 mi SE 6.9 mph - N/A   Overcast
9:53 AM 62.1 °F 57.0 °F 84% 30.13 in 10.0 mi SSE 9.2 mph - N/A   Overcast
10:53 AM 62.1 °F 57.0 °F 84% 30.12 in 8.0 mi SSE 13.8 mph 18.4 mph N/A   Overcast
11:10 AM 62.1 °F 57.9 °F 86% 30.13 in 8.0 mi SSE 9.2 mph - N/A   Overcast
11:23 AM 64.0 °F 57.9 °F 80% 30.13 in 9.0 mi SSE 13.8 mph - N/A   Overcast
11:48 AM 66.2 °F 57.2 °F 73% 30.11 in 10.0 mi South 9.2 mph - N/A   Mostly Cloudy
11:53 AM 66.9 °F 57.9 °F 73% 30.10 in 10.0 mi South 11.5 mph - N/A   Mostly Cloudy
12:01 PM 66.9 °F 57.9 °F 73% 30.11 in 10.0 mi SSE 12.7 mph - N/A   Mostly Cloudy
12:14 PM 68.0 °F 59.0 °F 73% 30.10 in 10.0 mi SSE 10.4 mph 20.7 mph N/A   Scattered Clouds
12:26 PM 69.1 °F 59.0 °F 70% 30.10 in 10.0 mi SSE 12.7 mph 23.0 mph N/A   Mostly Cloudy
12:50 PM 71.6 °F 60.8 °F 69% 30.08 in 10.0 mi SSE 12.7 mph 21.9 mph N/A   Scattered Clouds
1:53 PM 73.9 °F 59.0 °F 59% 30.04 in 10.0 mi South 16.1 mph 25.3 mph N/A   Scattered Clouds
2:53 PM 75.9 °F 57.9 °F 54% 30.02 in 10.0 mi SSE 18.4 mph 26.5 mph N/A   Scattered Clouds
3:53 PM 77.0 °F 57.0 °F 50% 29.99 in 10.0 mi South 18.4 mph 27.6 mph N/A   Clear
4:53 PM 77.0 °F 57.0 °F 50% 29.96 in 10.0 mi SSE 18.4 mph 27.6 mph N/A   Clear
5:53 PM 77.0 °F 57.0 °F 50% 29.95 in 10.0 mi South 16.1 mph 24.2 mph N/A   Clear
6:53 PM 75.0 °F 57.0 °F 53% 29.93 in 10.0 mi South 18.4 mph 27.6 mph N/A   Clear
7:53 PM 73.0 °F 57.0 °F 57% 29.94 in 10.0 mi South 10.4 mph 21.9 mph N/A   Clear
8:53 PM 71.1 °F 57.9 °F 63% 29.94 in 10.0 mi South 11.5 mph - N/A   Clear
9:53 PM 69.1 °F 57.9 °F 68% 29.94 in 10.0 mi SSE 11.5 mph - N/A   Clear
10:53 PM 68.0 °F 57.9 °F 70% 29.94 in 10.0 mi South 12.7 mph 20.7 mph N/A   Clear
11:53 PM 66.9 °F 57.9 °F 73% 29.94 in 10.0 mi South 10.4 mph 18.4 mph N/A   Clear